| time (UTC) | temp C | wind direction | speed KPH | gust KPH | rain 1hr cm | rain 24hr cm | rain mn cm | humidity % | barometer mb |
| 20260906171308 | 26 | 80 | 0.0 | 9.7 | 0.00 | 0.00 | 0.00 | 61 | 1021.8 |
| 20260906170804 | 26 | 146 | 3.2 | 12.9 | 0.00 | 0.00 | 0.00 | 62 | 1021.9 |
| 20260906170300 | 26 | 133 | 9.7 | 12.9 | 0.00 | 0.00 | 0.00 | 63 | 1022.0 |
| 20260906165756 | 26 | 107 | 3.2 | 9.7 | 0.00 | 0.00 | 0.00 | 63 | 1021.9 |
| 20260906165250 | 26 | 235 | 4.8 | 11.3 | 0.00 | 0.00 | 0.00 | 65 | 1021.9 |
| 20260906164750 | 25 | 99 | 4.8 | 12.9 | 0.00 | 0.00 | 0.00 | 64 | 1022.2 |
| 20260906164244 | 26 | 101 | 4.8 | 11.3 | 0.00 | 0.00 | 0.00 | 64 | 1021.9 |
| 20260906163740 | 25 | 101 | 4.8 | 11.3 | 0.00 | 0.00 | 0.00 | 64 | 1021.9 |
| 20260906163237 | 25 | 129 | 0.0 | 11.3 | 0.00 | 0.00 | 0.00 | 67 | 1021.9 |
| 20260906162733 | 25 | 122 | 6.4 | 12.9 | 0.00 | 0.00 | 0.00 | 63 | 1021.9 |
| 20260906162228 | 25 | 356 | 3.2 | 6.4 | 0.00 | 0.00 | 0.00 | 65 | 1022.1 |
| 20260906161722 | 25 | 97 | 6.4 | 11.3 | 0.00 | 0.00 | 0.00 | 65 | 1022.0 |
| 20260906161222 | 24 | 109 | 8.0 | 9.7 | 0.00 | 0.00 | 0.00 | 66 | 1022.0 |
| 20260906160720 | 24 | 131 | 4.8 | 11.3 | 0.00 | 0.00 | 0.00 | 68 | 1022.0 |
| 20260906160220 | 25 | 142 | 4.8 | 8.0 | 0.00 | 0.00 | 0.00 | 68 | 1021.9 |
| 20260906155718 | 24 | 101 | 4.8 | 12.9 | 0.00 | 0.00 | 0.00 | 67 | 1022.0 |
| 20260906155213 | 24 | 118 | 1.6 | 12.9 | 0.00 | 0.00 | 0.00 | 67 | 1021.9 |
| 20260906154708 | 24 | 92 | 3.2 | 9.7 | 0.00 | 0.00 | 0.00 | 67 | 1021.7 |
| 20260906154203 | 24 | 181 | 4.8 | 14.5 | 0.00 | 0.00 | 0.00 | 66 | 1021.8 |
| 20260906153701 | 24 | 111 | 3.2 | 19.3 | 0.00 | 0.00 | 0.00 | 68 | 1021.9 |
| 20260906153156 | 23 | 124 | 8.0 | 11.3 | 0.00 | 0.00 | 0.00 | 68 | 1021.6 |
| 20260906152651 | 23 | 120 | 3.2 | 11.3 | 0.00 | 0.00 | 0.00 | 70 | 1021.7 |
| 20260906152145 | 23 | 150 | 1.6 | 8.0 | 0.00 | 0.00 | 0.00 | 71 | 1021.6 |
| 20260906151640 | 23 | 53 | 3.2 | 8.0 | 0.00 | 0.00 | 0.00 | 71 | 1021.6 |
| 20260906151136 | 23 | 85 | 3.2 | 9.7 | 0.00 | 0.00 | 0.00 | 72 | 1021.6 |
| 20260906150631 | 23 | 129 | 3.2 | 9.7 | 0.00 | 0.00 | 0.00 | 75 | 1021.5 |
| 20260906150126 | 22 | 65 | 0.0 | 8.0 | 0.00 | 0.00 | 0.00 | 76 | 1021.5 |
| 20260906145625 | 23 | 147 | 3.2 | 11.3 | 0.00 | 0.00 | 0.00 | 73 | 1021.5 |
| 20260906145120 | 22 | 15 | 4.8 | 4.8 | 0.00 | 0.00 | 0.00 | 75 | 1021.6 |
| 20260906144614 | 22 | 104 | 3.2 | 11.3 | 0.00 | 0.00 | 0.00 | 74 | 1021.5 |
| 20260906144109 | 22 | 148 | 6.4 | 8.0 | 0.00 | 0.00 | 0.00 | 75 | 1021.6 |
| 20260906143604 | 22 | 122 | 1.6 | 6.4 | 0.00 | 0.00 | 0.00 | 76 | 1021.5 |
| 20260906143101 | 22 | 132 | 1.6 | 11.3 | 0.00 | 0.00 | 0.00 | 76 | 1021.6 |
| 20260906142600 | 22 | 20 | 1.6 | 9.7 | 0.00 | 0.00 | 0.00 | 75 | 1021.4 |
| 20260906142055 | 22 | 131 | 1.6 | 4.8 | 0.00 | 0.00 | 0.00 | 77 | 1021.2 |
| 20260906141554 | 22 | 133 | 4.8 | 8.0 | 0.00 | 0.00 | 0.00 | 76 | 1021.1 |
| 20260906141050 | 21 | 152 | 3.2 | 11.3 | 0.00 | 0.00 | 0.00 | 79 | 1021.2 |
| 20260906140548 | 22 | 108 | 4.8 | 9.7 | 0.00 | 0.00 | 0.00 | 77 | 1021.2 |
| 20260906140043 | 21 | 86 | 3.2 | 9.7 | 0.00 | 0.00 | 0.00 | 79 | 1021.0 |
| 20260906135540 | 21 | 118 | 6.4 | 14.5 | 0.00 | 0.00 | 0.00 | 79 | 1021.0 |
| 20260906135036 | 21 | 81 | 3.2 | 14.5 | 0.00 | 0.00 | 0.00 | 79 | 1021.0 |
| 20260906134531 | 21 | 105 | 3.2 | 9.7 | 0.00 | 0.00 | 0.00 | 77 | 1021.3 |
| 20260906134026 | 22 | 49 | 0.0 | 4.8 | 0.00 | 0.00 | 0.00 | 76 | 1021.3 |
| 20260906133522 | 21 | 24 | 0.0 | 4.8 | 0.00 | 0.00 | 0.00 | 77 | 1021.2 |
| 20260906133017 | 21 | 34 | 1.6 | 4.8 | 0.00 | 0.00 | 0.00 | 79 | 1021.3 |
| 20260906132512 | 20 | 37 | 1.6 | 8.0 | 0.00 | 0.00 | 0.00 | 79 | 1021.4 |
| 20260906132008 | 20 | 102 | 1.6 | 9.7 | 0.00 | 0.00 | 0.00 | 81 | 1021.4 |
| 20260906131503 | 20 | 38 | 0.0 | 4.8 | 0.00 | 0.00 | 0.00 | 85 | 1021.4 |
| 20260906130958 | 18 | 64 | 0.0 | 4.8 | 0.00 | 0.00 | 0.00 | 95 | 1021.5 |
| 20260906130458 | 17 | 141 | 1.6 | 1.6 | 0.00 | 0.00 | 0.00 | 99 | 1021.3 |
| 20260906125952 | 17 | 89 | 0.0 | 1.6 | 0.00 | 0.00 | 0.00 | 99 | 1021.2 |
| 20260906125450 | 16 | 353 | 1.6 | 4.8 | 0.00 | 0.00 | 0.00 | 99 | 1021.2 |
| 20260906124949 | 16 | 13 | 0.0 | 3.2 | 0.00 | 0.00 | 0.00 | 99 | 1021.2 |
| 20260906124445 | 16 | 43 | 0.0 | 3.2 | 0.00 | 0.00 | 0.00 | 99 | 1021.2 |
| 20260906123944 | 16 | 51 | 1.6 | 3.2 | 0.00 | 0.00 | 0.00 | 99 | 1020.9 |
| 20260906123439 | 15 | 37 | 0.0 | 3.2 | 0.00 | 0.00 | 0.00 | 99 | 1020.9 |
| 20260906122939 | 15 | 27 | 1.6 | 3.2 | 0.00 | 0.00 | 0.00 | 99 | 1021.0 |
| 20260906122434 | 15 | 55 | 1.6 | 3.2 | 0.00 | 0.00 | 0.00 | 99 | 1020.9 |
| 20260906121931 | 15 | 38 | 0.0 | 3.2 | 0.00 | 0.00 | 0.00 | 99 | 1021.0 |
| 20260906121427 | 15 | 144 | 0.0 | 3.2 | 0.00 | 0.00 | 0.00 | 99 | 1020.7 |
| 20260906120923 | 15 | 343 | 0.0 | 1.6 | 0.00 | 0.00 | 0.00 | 99 | 1020.9 |
| 20260906120418 | 15 | 19 | 0.0 | 1.6 | 0.00 | 0.00 | 0.00 | 99 | 1020.8 |
| 20260906115914 | 15 | 49 | 0.0 | 3.2 | 0.00 | 0.00 | 0.00 | 99 | 1020.8 |
| 20260906115410 | 15 | 15 | 0.0 | 1.6 | 0.00 | 0.00 | 0.00 | 99 | 1020.8 |
| 20260906114909 | 15 | 89 | 0.0 | 1.6 | 0.00 | 0.00 | 0.00 | 99 | 1020.5 |
| 20260906114404 | 15 | 75 | 0.0 | 1.6 | 0.00 | 0.00 | 0.00 | 99 | 1020.6 |
| 20260906113859 | 15 | 44 | 0.0 | 1.6 | 0.00 | 0.00 | 0.00 | 99 | 1020.6 |
| 20260906113358 | 15 | 329 | 0.0 | 1.6 | 0.00 | 0.00 | 0.00 | 99 | 1020.1 |
| 20260906112854 | 15 | 46 | 0.0 | 3.2 | 0.00 | 0.00 | 0.00 | 99 | 1020.0 |
| 20260906112350 | 15 | 19 | 0.0 | 3.2 | 0.00 | 0.00 | 0.00 | 99 | 1020.1 |
| 20260906111849 | 15 | 16 | 0.0 | 3.2 | 0.00 | 0.00 | 0.00 | 99 | 1020.1 |
| 20260906111343 | 15 | 70 | 3.2 | 3.2 | 0.00 | 0.00 | 0.00 | 99 | 1020.3 |
| 20260906110839 | 15 | 80 | 1.6 | 1.6 | 0.00 | 0.00 | 0.00 | 99 | 1020.3 |
| 20260906110335 | 15 | 44 | 0.0 | 0.0 | 0.00 | 0.00 | 0.00 | 99 | 1020.3 |
| 20260906105833 | 15 | 333 | 0.0 | 1.6 | 0.00 | 0.00 | 0.00 | 99 | 1020.3 |
| 20260906105329 | 15 | 34 | 0.0 | 1.6 | 0.00 | 0.00 | 0.00 | 99 | 1020.1 |
| 20260906104825 | 15 | 15 | 0.0 | 3.2 | 0.00 | 0.00 | 0.00 | 99 | 1020.0 |
| 20260906104323 | 15 | 32 | 0.0 | 1.6 | 0.00 | 0.00 | 0.00 | 99 | 1020.0 |
| 20260906103822 | 15 | 25 | 0.0 | 0.0 | 0.00 | 0.00 | 0.00 | 99 | 1020.4 |
| 20260906103321 | 15 | 32 | 0.0 | 1.6 | 0.00 | 0.00 | 0.00 | 99 | 1020.1 |
| 20260906102817 | 15 | 49 | 0.0 | 1.6 | 0.00 | 0.00 | 0.00 | 99 | 1020.1 |
| 20260906102315 | 15 | 50 | 0.0 | 1.6 | 0.00 | 0.00 | 0.00 | 99 | 1020.0 |
| 20260906101811 | 15 | 135 | 0.0 | 1.6 | 0.00 | 0.00 | 0.00 | 99 | 1019.9 |
| 20260906101306 | 15 | 62 | 0.0 | 1.6 | 0.00 | 0.00 | 0.00 | 99 | 1020.0 |
| 20260906100802 | 15 | 35 | 0.0 | 1.6 | 0.00 | 0.00 | 0.00 | 99 | 1020.0 |
| 20260906100301 | 15 | 27 | 0.0 | 1.6 | 0.00 | 0.00 | 0.00 | 99 | 1019.7 |
| 20260906095756 | 15 | 75 | 0.0 | 1.6 | 0.00 | 0.00 | 0.00 | 99 | 1019.9 |
| 20260906095252 | 15 | 33 | 0.0 | 1.6 | 0.00 | 0.00 | 0.00 | 99 | 1019.9 |
| 20260906094750 | 16 | 117 | 0.0 | 1.6 | 0.00 | 0.00 | 0.00 | 99 | 1020.0 |
| 20260906094246 | 16 | 62 | 0.0 | 0.0 | 0.00 | 0.00 | 0.00 | 99 | 1020.0 |
| 20260906093742 | 16 | 32 | 0.0 | 1.6 | 0.00 | 0.00 | 0.00 | 99 | 1020.0 |
| 20260906093237 | 16 | 35 | 0.0 | 3.2 | 0.00 | 0.00 | 0.00 | 99 | 1019.7 |
| 20260906092733 | 16 | 75 | 0.0 | 1.6 | 0.00 | 0.00 | 0.00 | 99 | 1020.0 |
| 20260906092232 | 16 | 37 | 0.0 | 3.2 | 0.00 | 0.00 | 0.00 | 99 | 1019.9 |
| 20260906091728 | 16 | 69 | 0.0 | 1.6 | 0.00 | 0.00 | 0.00 | 99 | 1020.0 |
| 20260906091224 | 16 | 119 | 0.0 | 1.6 | 0.00 | 0.00 | 0.00 | 99 | 1019.9 |
| 20260906090720 | 16 | 38 | 0.0 | 1.6 | 0.00 | 0.00 | 0.00 | 99 | 1020.0 |
| 20260906090219 | 16 | 55 | 0.0 | 0.0 | 0.00 | 0.00 | 0.00 | 99 | 1019.9 |
| 20260906085718 | 16 | 55 | 0.0 | 0.0 | 0.00 | 0.00 | 0.00 | 99 | 1020.1 |
| 20260906085212 | 16 | 111 | 0.0 | 3.2 | 0.00 | 0.00 | 0.00 | 99 | 1020.1 |
| 20260906084706 | 16 | 50 | 0.0 | 0.0 | 0.00 | 0.00 | 0.00 | 99 | 1020.1 |
| 20260906084201 | 16 | 50 | 0.0 | 1.6 | 0.00 | 0.00 | 0.00 | 99 | 1020.1 |
| 20260906083656 | 16 | 38 | 0.0 | 0.0 | 0.00 | 0.00 | 0.00 | 99 | 1020.0 |
| 20260906083151 | 16 | 38 | 0.0 | 0.0 | 0.00 | 0.00 | 0.00 | 99 | 1020.1 |
| 20260906082646 | 17 | 38 | 0.0 | 1.6 | 0.00 | 0.00 | 0.00 | 99 | 1020.3 |
| 20260906082142 | 17 | 3 | 1.6 | 3.2 | 0.00 | 0.00 | 0.00 | 99 | 1019.9 |
| 20260906081638 | 17 | 15 | 0.0 | 1.6 | 0.00 | 0.00 | 0.00 | 99 | 1019.9 |
| 20260906081132 | 17 | 37 | 0.0 | 1.6 | 0.00 | 0.00 | 0.00 | 99 | 1019.7 |
| 20260906080629 | 17 | 50 | 0.0 | 1.6 | 0.00 | 0.00 | 0.00 | 99 | 1019.9 |
| 20260906080125 | 17 | 66 | 0.0 | 1.6 | 0.00 | 0.00 | 0.00 | 99 | 1019.9 |
| 20260906075624 | 17 | 32 | 0.0 | 0.0 | 0.00 | 0.00 | 0.00 | 99 | 1019.9 |
| 20260906075119 | 17 | 15 | 0.0 | 1.6 | 0.00 | 0.00 | 0.00 | 99 | 1019.7 |
| 20260906074614 | 17 | 37 | 0.0 | 0.0 | 0.00 | 0.00 | 0.00 | 99 | 1019.7 |
| 20260906074113 | 17 | 50 | 0.0 | 1.6 | 0.00 | 0.00 | 0.00 | 99 | 1019.9 |
| 20260906073608 | 17 | 70 | 0.0 | 1.6 | 0.00 | 0.00 | 0.00 | 98 | 1020.1 |
| 20260906073104 | 17 | 15 | 0.0 | 1.6 | 0.00 | 0.00 | 0.00 | 99 | 1019.9 |
| 20260906072558 | 17 | 37 | 0.0 | 0.0 | 0.00 | 0.00 | 0.00 | 98 | 1020.1 |
| 20260906072055 | 17 | 37 | 0.0 | 1.6 | 0.00 | 0.00 | 0.00 | 98 | 1019.9 |
| 20260906071551 | 17 | 6 | 0.0 | 1.6 | 0.00 | 0.00 | 0.00 | 98 | 1019.8 |
| 20260906071045 | 17 | 50 | 0.0 | 0.0 | 0.00 | 0.00 | 0.00 | 97 | 1020.0 |
| 20260906070542 | 18 | 50 | 0.0 | 0.0 | 0.00 | 0.00 | 0.00 | 97 | 1020.0 |
| 20260906070037 | 18 | 50 | 0.0 | 0.0 | 0.00 | 0.00 | 0.00 | 97 | 1019.9 |
| 20260906065537 | 18 | 50 | 0.0 | 1.6 | 0.00 | 0.00 | 0.00 | 97 | 1019.9 |
| 20260906065033 | 18 | 333 | 0.0 | 0.0 | 0.00 | 0.00 | 0.00 | 97 | 1019.9 |
| 20260906064528 | 18 | 75 | 0.0 | 0.0 | 0.00 | 0.00 | 0.00 | 97 | 1020.1 |
| 20260906064023 | 18 | 44 | 0.0 | 1.6 | 0.00 | 0.00 | 0.00 | 97 | 1020.3 |
| 20260906063518 | 18 | 50 | 0.0 | 0.0 | 0.00 | 0.00 | 0.00 | 96 | 1020.3 |
| 20260906063014 | 18 | 55 | 0.0 | 0.0 | 0.00 | 0.00 | 0.00 | 96 | 1020.1 |
| 20260906062509 | 18 | 55 | 0.0 | 0.0 | 0.00 | 0.00 | 0.00 | 96 | 1020.1 |
| 20260906062003 | 18 | 15 | 0.0 | 0.0 | 0.00 | 0.00 | 0.00 | 96 | 1020.1 |
| 20260906061459 | 18 | 31 | 0.0 | 1.6 | 0.00 | 0.00 | 0.00 | 96 | 1020.3 |
| 20260906060953 | 18 | 44 | 0.0 | 1.6 | 0.00 | 0.00 | 0.00 | 96 | 1020.0 |
| 20260906060450 | 18 | 32 | 0.0 | 1.6 | 0.00 | 0.00 | 0.00 | 96 | 1020.4 |
| 20260906055947 | 18 | 16 | 1.6 | 1.6 | 0.00 | 0.00 | 0.00 | 96 | 1020.0 |
| 20260906055442 | 18 | 37 | 0.0 | 1.6 | 0.00 | 0.00 | 0.00 | 96 | 1019.9 |
| 20260906054938 | 18 | 195 | 0.0 | 0.0 | 0.00 | 0.00 | 0.00 | 96 | 1019.9 |
| 20260906054432 | 18 | 50 | 0.0 | 0.0 | 0.00 | 0.00 | 0.00 | 97 | 1019.6 |
| 20260906053928 | 18 | 44 | 0.0 | 1.6 | 0.00 | 0.00 | 0.00 | 96 | 1019.9 |
| 20260906053424 | 18 | 15 | 0.0 | 0.0 | 0.00 | 0.00 | 0.00 | 96 | 1020.1 |
| 20260906052920 | 18 | 13 | 0.0 | 0.0 | 0.00 | 0.00 | 0.00 | 96 | 1019.7 |
| 20260906052416 | 18 | 15 | 0.0 | 1.6 | 0.00 | 0.00 | 0.00 | 96 | 1019.8 |
| 20260906051912 | 18 | 21 | 1.6 | 1.6 | 0.00 | 0.00 | 0.00 | 96 | 1019.6 |
| 20260906051412 | 18 | 30 | 0.0 | 1.6 | 0.00 | 0.00 | 0.00 | 96 | 1019.5 |
| 20260906050908 | 18 | 82 | 0.0 | 1.6 | 0.00 | 0.00 | 0.00 | 96 | 1019.5 |
| 20260906050403 | 18 | 25 | 0.0 | 1.6 | 0.00 | 0.00 | 0.00 | 96 | 1019.6 |
| 20260906045901 | 18 | 92 | 0.0 | 1.6 | 0.00 | 0.00 | 0.00 | 96 | 1019.5 |
| 20260906045355 | 18 | 118 | 0.0 | 3.2 | 0.00 | 0.00 | 0.00 | 96 | 1019.5 |
| 20260906044852 | 18 | 113 | 0.0 | 3.2 | 0.00 | 0.00 | 0.00 | 96 | 1019.4 |
| 20260906044352 | 18 | 230 | 0.0 | 1.6 | 0.00 | 0.00 | 0.00 | 96 | 1019.4 |
| 20260906043847 | 18 | 117 | 0.0 | 3.2 | 0.00 | 0.00 | 0.00 | 96 | 1019.1 |
| 20260906043344 | 18 | 99 | 0.0 | 4.8 | 0.00 | 0.00 | 0.00 | 96 | 1019.2 |
| 20260906042838 | 18 | 129 | 0.0 | 3.2 | 0.00 | 0.00 | 0.00 | 96 | 1019.3 |
| 20260906042337 | 18 | 135 | 0.0 | 3.2 | 0.00 | 0.00 | 0.00 | 96 | 1019.0 |
| 20260906041833 | 18 | 169 | 1.6 | 3.2 | 0.00 | 0.00 | 0.00 | 96 | 1019.2 |
| 20260906041328 | 18 | 131 | 0.0 | 3.2 | 0.00 | 0.00 | 0.00 | 97 | 1019.0 |
| 20260906040828 | 18 | 127 | 1.6 | 1.6 | 0.00 | 0.00 | 0.00 | 97 | 1019.0 |
| 20260906040324 | 18 | 57 | 1.6 | 3.2 | 0.00 | 0.00 | 0.00 | 97 | 1018.9 |
| 20260906035819 | 18 | 0 | 0.0 | 1.6 | 0.00 | 0.00 | 0.00 | 96 | 1018.9 |
| 20260906035314 | 18 | 15 | 0.0 | 1.6 | 0.00 | 0.00 | 0.00 | 96 | 1018.8 |
| 20260906034809 | 18 | 37 | 0.0 | 1.6 | 0.00 | 0.00 | 0.00 | 96 | 1018.7 |
| 20260906034304 | 18 | 154 | 0.0 | 3.2 | 0.00 | 0.00 | 0.00 | 96 | 1018.8 |
| 20260906033800 | 18 | 19 | 0.0 | 1.6 | 0.00 | 0.00 | 0.00 | 95 | 1018.9 |
| 20260906033259 | 18 | 13 | 0.0 | 1.6 | 0.00 | 0.00 | 0.00 | 95 | 1018.8 |
| 20260906032756 | 18 | 37 | 0.0 | 1.6 | 0.00 | 0.00 | 0.00 | 95 | 1018.6 |
| 20260906032256 | 19 | 89 | 0.0 | 3.2 | 0.00 | 0.00 | 0.00 | 94 | 1018.6 |
| 20260906031751 | 19 | 101 | 0.0 | 3.2 | 0.00 | 0.00 | 0.00 | 95 | 1018.6 |
| 20260906031247 | 19 | 89 | 0.0 | 1.6 | 0.00 | 0.00 | 0.00 | 94 | 1018.6 |
| 20260906030746 | 19 | 60 | 0.0 | 1.6 | 0.00 | 0.00 | 0.00 | 94 | 1018.7 |
| 20260906030242 | 19 | 50 | 0.0 | 0.0 | 0.00 | 0.00 | 0.00 | 93 | 1018.6 |
| 20260906025741 | 19 | 50 | 0.0 | 1.6 | 0.00 | 0.00 | 0.00 | 93 | 1018.7 |
| 20260906025235 | 20 | 22 | 0.0 | 1.6 | 0.00 | 0.00 | 0.00 | 92 | 1018.5 |
| 20260906024734 | 20 | 124 | 0.0 | 3.2 | 0.00 | 0.00 | 0.00 | 92 | 1018.7 |
| 20260906024233 | 20 | 119 | 0.0 | 3.2 | 0.00 | 0.00 | 0.00 | 92 | 1018.7 |
| 20260906023729 | 20 | 242 | 0.0 | 0.0 | 0.00 | 0.00 | 0.00 | 91 | 1018.6 |
| 20260906023225 | 20 | 242 | 0.0 | 1.6 | 0.00 | 0.00 | 0.00 | 91 | 1018.8 |
| 20260906022720 | 20 | 173 | 0.0 | 3.2 | 0.00 | 0.00 | 0.00 | 90 | 1018.7 |
| 20260906022215 | 20 | 126 | 0.0 | 4.8 | 0.00 | 0.00 | 0.00 | 90 | 1018.5 |
| 20260906021712 | 20 | 152 | 0.0 | 3.2 | 0.00 | 0.00 | 0.00 | 90 | 1018.4 |
| 20260906021210 | 20 | 66 | 0.0 | 3.2 | 0.00 | 0.00 | 0.00 | 89 | 1018.4 |
| 20260906020705 | 20 | 124 | 0.0 | 4.8 | 0.00 | 0.00 | 0.00 | 89 | 1018.5 |
| 20260906020200 | 20 | 97 | 0.0 | 6.4 | 0.00 | 0.00 | 0.00 | 90 | 1018.5 |
| 20260906015654 | 20 | 75 | 0.0 | 3.2 | 0.00 | 0.00 | 0.00 | 90 | 1018.4 |
| 20260906015152 | 20 | 48 | 0.0 | 3.2 | 0.00 | 0.00 | 0.00 | 90 | 1018.4 |
| 20260906014647 | 21 | 86 | 0.0 | 3.2 | 0.00 | 0.00 | 0.00 | 89 | 1018.2 |
| 20260906014143 | 21 | 65 | 3.2 | 4.8 | 0.00 | 0.00 | 0.00 | 89 | 1018.1 |
| 20260906013639 | 21 | 72 | 3.2 | 3.2 | 0.00 | 0.00 | 0.00 | 89 | 1018.0 |
| 20260906013134 | 21 | 93 | 0.0 | 6.4 | 0.00 | 0.00 | 0.00 | 88 | 1018.2 |
| 20260906012634 | 21 | 46 | 3.2 | 4.8 | 0.00 | 0.00 | 0.00 | 88 | 1018.2 |
| 20260906012129 | 21 | 50 | 0.0 | 1.6 | 0.00 | 0.00 | 0.00 | 88 | 1018.1 |
| 20260906011624 | 21 | 104 | 0.0 | 3.2 | 0.00 | 0.00 | 0.00 | 87 | 1018.1 |
| 20260906011125 | 21 | 50 | 0.0 | 1.6 | 0.00 | 0.00 | 0.00 | 87 | 1018.2 |
| 20260906010620 | 21 | 102 | 0.0 | 3.2 | 0.00 | 0.00 | 0.00 | 86 | 1018.1 |
| 20260906010116 | 22 | 135 | 0.0 | 3.2 | 0.00 | 0.00 | 0.00 | 86 | 1018.1 |
| 20260906005616 | 22 | 129 | 0.0 | 1.6 | 0.00 | 0.00 | 0.00 | 85 | 1018.2 |
| 20260906005115 | 22 | 113 | 0.0 | 3.2 | 0.00 | 0.00 | 0.00 | 85 | 1018.0 |
| 20260906004614 | 22 | 124 | 0.0 | 3.2 | 0.00 | 0.00 | 0.00 | 84 | 1018.1 |
| 20260906004109 | 22 | 89 | 0.0 | 4.8 | 0.00 | 0.00 | 0.00 | 84 | 1018.0 |
| 20260906003604 | 22 | 63 | 0.0 | 4.8 | 0.00 | 0.00 | 0.00 | 83 | 1017.8 |
| 20260906003100 | 22 | 89 | 0.0 | 4.8 | 0.00 | 0.00 | 0.00 | 83 | 1017.7 |
| 20260906002555 | 23 | 122 | 3.2 | 4.8 | 0.00 | 0.00 | 0.00 | 82 | 1017.7 |
| 20260906002049 | 23 | 121 | 4.8 | 8.0 | 0.00 | 0.00 | 0.00 | 82 | 1017.7 |
| 20260906001544 | 23 | 111 | 3.2 | 9.7 | 0.00 | 0.00 | 0.00 | 81 | 1017.8 |
| 20260906001039 | 23 | 138 | 0.0 | 9.7 | 0.00 | 0.00 | 0.00 | 81 | 1017.9 |
| 20260906000535 | 23 | 110 | 3.2 | 6.4 | 0.00 | 0.00 | 0.00 | 79 | 1017.9 |
| 20260906000030 | 24 | 158 | 3.2 | 6.4 | 0.00 | 0.00 | 0.00 | 79 | 1017.8 |
| 20260905235524 | 24 | 147 | 3.2 | 8.0 | 0.00 | 0.00 | 0.00 | 79 | 1018.0 |
| 20260905235019 | 24 | 111 | 0.0 | 6.4 | 0.00 | 0.00 | 0.00 | 78 | 1018.0 |
| 20260905234515 | 24 | 164 | 3.2 | 6.4 | 0.00 | 0.00 | 0.00 | 78 | 1017.9 |
| 20260905234015 | 24 | 172 | 0.0 | 4.8 | 0.00 | 0.00 | 0.00 | 79 | 1017.8 |
| 20260905233509 | 24 | 135 | 6.4 | 9.7 | 0.00 | 0.00 | 0.00 | 79 | 1017.9 |
| 20260905233009 | 24 | 178 | 1.6 | 4.8 | 0.00 | 0.00 | 0.00 | 79 | 1018.1 |
| 20260905232504 | 24 | 122 | 1.6 | 4.8 | 0.00 | 0.00 | 0.00 | 79 | 1018.0 |
| 20260905232000 | 24 | 154 | 0.0 | 6.4 | 0.00 | 0.00 | 0.00 | 79 | 1017.8 |
| 20260905231455 | 24 | 185 | 1.6 | 3.2 | 0.00 | 0.00 | 0.00 | 79 | 1018.1 |
| 20260905230952 | 24 | 147 | 4.8 | 8.0 | 0.00 | 0.00 | 0.00 | 79 | 1017.8 |
| 20260905230450 | 24 | 147 | 3.2 | 8.0 | 0.00 | 0.00 | 0.00 | 78 | 1017.7 |
| 20260905225948 | 24 | 107 | 0.0 | 9.7 | 0.00 | 0.00 | 0.00 | 78 | 1017.9 |
| 20260905225444 | 25 | 89 | 3.2 | 8.0 | 0.00 | 0.00 | 0.00 | 76 | 1017.8 |
| 20260905224939 | 25 | 108 | 1.6 | 6.4 | 0.00 | 0.00 | 0.00 | 75 | 1018.0 |
| 20260905224435 | 26 | 26 | 3.2 | 9.7 | 0.00 | 0.00 | 0.00 | 71 | 1018.0 |
| 20260905223933 | 26 | 98 | 0.0 | 8.0 | 0.00 | 0.00 | 0.00 | 71 | 1018.0 |
| 20260905223432 | 26 | 100 | 1.6 | 17.7 | 0.00 | 0.00 | 0.00 | 70 | 1018.1 |
| 20260905222927 | 27 | 97 | 3.2 | 9.7 | 0.00 | 0.00 | 0.00 | 66 | 1017.9 |
| 20260905222426 | 27 | 44 | 0.0 | 3.2 | 0.00 | 0.00 | 0.00 | 66 | 1018.0 |
| 20260905221922 | 27 | 37 | 0.0 | 4.8 | 0.00 | 0.00 | 0.00 | 69 | 1017.8 |
| 20260905221419 | 26 | 114 | 1.6 | 8.0 | 0.00 | 0.00 | 0.00 | 69 | 1018.0 |
| 20260905220914 | 26 | 313 | 0.0 | 3.2 | 0.00 | 0.00 | 0.00 | 71 | 1018.0 |
| 20260905220410 | 26 | 119 | 3.2 | 6.4 | 0.00 | 0.00 | 0.00 | 70 | 1018.0 |
| 20260905215908 | 26 | 33 | 0.0 | 4.8 | 0.00 | 0.00 | 0.00 | 69 | 1017.9 |
| 20260905215404 | 27 | 135 | 1.6 | 4.8 | 0.00 | 0.00 | 0.00 | 66 | 1018.1 |
| 20260905214901 | 27 | 84 | 0.0 | 3.2 | 0.00 | 0.00 | 0.00 | 67 | 1018.0 |
| 20260905214356 | 27 | 2 | 0.0 | 9.7 | 0.00 | 0.00 | 0.00 | 69 | 1017.9 |
| 20260905213850 | 28 | 122 | 0.0 | 4.8 | 0.00 | 0.00 | 0.00 | 66 | 1018.1 |
| 20260905213348 | 27 | 303 | 0.0 | 6.4 | 0.00 | 0.00 | 0.00 | 66 | 1018.0 |
| 20260905212848 | 27 | 152 | 3.2 | 11.3 | 0.00 | 0.00 | 0.00 | 68 | 1018.1 |
| 20260905212348 | 27 | 138 | 0.0 | 11.3 | 0.00 | 0.00 | 0.00 | 68 | 1018.0 |
| 20260905211841 | 27 | 150 | 4.8 | 8.0 | 0.00 | 0.00 | 0.00 | 69 | 1017.8 |
| 20260905211337 | 26 | 98 | 4.8 | 6.4 | 0.00 | 0.00 | 0.00 | 70 | 1018.1 |
| 20260905210833 | 26 | 162 | 8.0 | 11.3 | 0.00 | 0.00 | 0.00 | 70 | 1017.9 |
| 20260905210328 | 26 | 20 | 0.0 | 11.3 | 0.00 | 0.00 | 0.00 | 70 | 1018.1 |
| 20260905205827 | 27 | 100 | 0.0 | 6.4 | 0.00 | 0.00 | 0.00 | 70 | 1017.8 |
| 20260905205321 | 27 | 134 | 6.4 | 8.0 | 0.00 | 0.00 | 0.00 | 69 | 1018.1 |
| 20260905204821 | 26 | 343 | 0.0 | 8.0 | 0.00 | 0.00 | 0.00 | 72 | 1018.1 |
| 20260905204317 | 27 | 36 | 1.6 | 6.4 | 0.00 | 0.00 | 0.00 | 71 | 1018.2 |
| 20260905203815 | 27 | 88 | 3.2 | 4.8 | 0.00 | 0.00 | 0.00 | 72 | 1018.3 |
| 20260905203312 | 27 | 170 | 4.8 | 8.0 | 0.00 | 0.00 | 0.00 | 68 | 1018.3 |
| 20260905202807 | 28 | 0 | 3.2 | 4.8 | 0.00 | 0.00 | 0.00 | 67 | 1018.1 |
| 20260905202306 | 27 | 62 | 0.0 | 4.8 | 0.00 | 0.00 | 0.00 | 71 | 1018.4 |
| 20260905201758 | 26 | 356 | 0.0 | 6.4 | 0.00 | 0.00 | 0.00 | 73 | 1018.3 |
| 20260905201253 | 26 | 46 | 0.0 | 4.8 | 0.00 | 0.00 | 0.00 | 73 | 1018.3 |
| 20260905200747 | 25 | 44 | 1.6 | 8.0 | 0.00 | 0.00 | 0.00 | 76 | 1018.3 |
| 20260905200244 | 25 | 25 | 1.6 | 11.3 | 0.00 | 0.00 | 0.00 | 78 | 1018.4 |
| 20260905195741 | 25 | 114 | 4.8 | 8.0 | 0.00 | 0.00 | 0.00 | 76 | 1018.3 |
| 20260905195236 | 25 | 165 | 0.0 | 11.3 | 0.00 | 0.00 | 0.00 | 77 | 1018.4 |
| 20260905194732 | 25 | 96 | 4.8 | 11.3 | 0.00 | 0.00 | 0.00 | 75 | 1018.1 |
| 20260905194231 | 26 | 122 | 4.8 | 6.4 | 0.00 | 0.00 | 0.00 | 74 | 1018.4 |
| 20260905193725 | 26 | 85 | 3.2 | 4.8 | 0.00 | 0.00 | 0.00 | 75 | 1018.5 |
| 20260905193220 | 26 | 230 | 6.4 | 11.3 | 0.00 | 0.00 | 0.00 | 73 | 1018.3 |
| 20260905192716 | 25 | 78 | 0.0 | 6.4 | 0.00 | 0.00 | 0.00 | 77 | 1018.3 |
| 20260905192213 | 26 | 142 | 0.0 | 4.8 | 0.00 | 0.00 | 0.00 | 77 | 1018.5 |
| 20260905191711 | 26 | 311 | 0.0 | 6.4 | 0.00 | 0.00 | 0.00 | 75 | 1018.3 |
| 20260905191209 | 26 | 104 | 1.6 | 12.9 | 0.00 | 0.00 | 0.00 | 73 | 1018.5 |
| 20260905190709 | 27 | 177 | 0.0 | 6.4 | 0.00 | 0.00 | 0.00 | 72 | 1018.4 |
| 20260905190208 | 25 | 146 | 0.0 | 4.8 | 0.00 | 0.00 | 0.00 | 77 | 1018.3 |
| 20260905185707 | 25 | 30 | 0.0 | 11.3 | 0.00 | 0.00 | 0.00 | 77 | 1018.4 |
| 20260905185207 | 25 | 121 | 3.2 | 8.0 | 0.00 | 0.00 | 0.00 | 78 | 1018.4 |
| 20260905184701 | 25 | 122 | 4.8 | 9.7 | 0.00 | 0.00 | 0.00 | 77 | 1018.4 |
| 20260905184200 | 25 | 100 | 3.2 | 9.7 | 0.00 | 0.00 | 0.00 | 79 | 1018.4 |
| 20260905183659 | 24 | 77 | 4.8 | 9.7 | 0.00 | 0.00 | 0.00 | 80 | 1018.6 |
| 20260905183154 | 24 | 80 | 3.2 | 9.7 | 0.00 | 0.00 | 0.00 | 79 | 1018.5 |
| 20260905182649 | 25 | 121 | 1.6 | 6.4 | 0.00 | 0.00 | 0.00 | 80 | 1018.4 |
| 20260905182149 | 25 | 8 | 3.2 | 6.4 | 0.00 | 0.00 | 0.00 | 79 | 1018.4 |
| 20260905181644 | 24 | 161 | 4.8 | 11.3 | 0.00 | 0.00 | 0.00 | 80 | 1018.4 |
| 20260905181143 | 24 | 0 | 0.0 | 8.0 | 0.00 | 0.00 | 0.00 | 81 | 1018.3 |
| 20260905180638 | 24 | 99 | 3.2 | 8.0 | 0.00 | 0.00 | 0.00 | 81 | 1018.3 |
| 20260905180133 | 24 | 113 | 0.0 | 8.0 | 0.00 | 0.00 | 0.00 | 81 | 1018.5 |
| 20260905175632 | 24 | 82 | 1.6 | 4.8 | 0.00 | 0.00 | 0.00 | 81 | 1018.3 |
| 20260905175127 | 23 | 100 | 3.2 | 12.9 | 0.00 | 0.00 | 0.00 | 81 | 1018.4 |
| 20260905174623 | 24 | 109 | 8.0 | 11.3 | 0.00 | 0.00 | 0.00 | 79 | 1018.2 |
| 20260905174119 | 24 | 135 | 1.6 | 4.8 | 0.00 | 0.00 | 0.00 | 80 | 1018.5 |
| 20260905173615 | 24 | 25 | 0.0 | 3.2 | 0.00 | 0.00 | 0.00 | 81 | 1018.5 |
| 20260905173110 | 23 | 117 | 0.0 | 3.2 | 0.00 | 0.00 | 0.00 | 81 | 1018.5 |
| 20260905172609 | 23 | 42 | 0.0 | 4.8 | 0.00 | 0.00 | 0.00 | 81 | 1018.7 |
| 20260905172104 | 23 | 89 | 0.0 | 3.2 | 0.00 | 0.00 | 0.00 | 81 | 1018.4 |
| 20260905171601 | 23 | 98 | 3.2 | 8.0 | 0.00 | 0.00 | 0.00 | 82 | 1018.6 |